"2009-08-10 00:00:00",1137889,3.837,126.1,4.781,0.222,19.66,109.3666,23.27,24.26,23.94,0,111.1,13.14,24.10,88.1
"2009-08-10 00:00:30",1137890,4.461,124.7,3.075,0.402,19.62,109.3666,23.27,24.26,23.93,0,111.1,13.14,24.10,86.7
"2009-08-10 00:01:00",1137891,4.836,130.1,2.816,0.269,19.61,109.3666,23.27,24.26,24.03,0,111.1,13.14,24.10,92.1
"2009-08-10 00:01:30",1137892,4.108,132.9,5.267,0.558,19.66,109.3666,23.27,24.27,24.01,0,111.1,13.14,24.10,94.9
"2009-08-10 00:02:00",1137893,3.474,122.4,9.46,0.253,19.66,109.3666,23.27,24.28,23.99,0,111.1,13.14,24.10,84.4
"2009-08-10 00:02:30",1137894,4.44,97.8,8.62,0.697,19.73,109.3666,23.27,24.27,24.05,0,111.1,13.14,24.10,59.8
"2009-08-10 00:03:00",1137895,3.196,111.8,7.799,0.47,19.64,109.3666,23.27,24.28,24.05,0,111.1,13.14,24.10,73.8
"2009-08-10 00:03:30",1137896,4.088,125.8,2.733,0.229,19.68,109.3666,23.27,24.28,24.16,0,111.1,13.14,24.10,87.8
"2009-08-10 00:04:00",1137897,3.779,128.5,5.302,0.258,19.69,109.3666,23.27,24.29,24.16,0,111.1,13.14,24.10,90.5
"2009-08-10 00:04:30",1137898,4.039,119.8,5.673,0.235,19.71,109.3671,23.27,24.27,24.07,0,111.1,13.14,24.10,81.8
"2009-08-10 00:05:00",1137899,3.437,131,5.121,0.434,19.71,109.3711,23.28,24.3,24.1,0,111.1,13.14,24.11,93.0
"2009-08-10 00:05:30",1137900,3.034,117.3,5.064,0.32,19.72,109.3705,23.28,24.3,24.23,0,111.1,13.14,24.11,79.3
"2009-08-10 00:06:00",1137901,3.523,121.8,4.341,0.182,19.73,109.3666,23.27,24.28,24.16,0,111.1,13.13,24.10,83.8
"2009-08-10 00:06:30",1137902,3.503,119.1,5.626,0.237,19.8,109.3666,23.27,24.28,24.17,0,111.1,13.13,24.10,81.1
"2009-08-10 00:07:00",1137903,3.804,110.4,4.843,0.309,19.94,109.3666,23.27,24.25,24.41,0,111.1,13.13,24.10,72.4
"2009-08-10 00:07:30",1137904,5.183,101.9,5.81,0.498,19.88,109.3666,23.27,24.25,24.54,0,111.1,13.13,24.10,63.9
"2009-08-10 00:08:00",1137905,5.007,111.8,5.253,0.368,19.75,109.3666,23.27,24.22,24.38,0,111.1,13.13,24.10,73.8
"2009-08-10 00:08:30",1137906,4.514,107.7,5.24,0.316,19.8,109.3666,23.27,24.23,24.38,0,111.1,13.13,24.10,69.7
"2009-08-10 00:09:00",1137907,4.977,121.8,4.63,0.462,19.78,109.3666,23.27,24.22,24.27,0,111.1,13.13,24.10,83.8
"2009-08-10 00:09:30",1137908,5.928,124.9,3.228,0.315,19.8,109.3666,23.27,24.21,24.27,0,111.1,13.13,24.10,86.9
"2009-08-10 00:10:00",1137909,5.743,117.1,4.975,0.664,19.83,109.3666,23.27,24.22,24.26,0,111.1,13.13,24.10,79.1
"2009-08-10 00:10:30",1137910,6.177,113.6,3.014,0.312,19.86,109.3666,23.27,24.23,24.22,0,111.1,13.13,24.10,75.6
"2009-08-10 00:11:00",1137911,5.405,119,3.259,0.242,19.92,109.3666,23.27,24.25,24.2,0,111.1,13.14,24.10,81.0
"2009-08-10 00:11:30",1137912,4.852,128.5,5.489,0.205,19.82,109.3666,23.27,24.23,24.3,0,111.1,13.14,24.10,90.5
"2009-08-10 00:12:00",1137913,4.927,135.7,2.566,0.231,19.82,109.3666,23.27,24.24,24.29,0,111.1,13.14,24.10,97.7
"2009-08-10 00:12:30",1137914,4.662,131,4.897,0.571,19.83,109.3666,23.27,24.25,24.27,0,111.1,13.14,24.10,93.0
"2009-08-10 00:13:00",1137915,4.226,122.6,3.781,0.269,19.77,109.3666,23.27,24.25,24.18,0,111.1,13.14,24.10,84.6
"2009-08-10 00:13:30",1137916,4.393,114.6,2.843,0.119,19.75,109.3666,23.27,24.27,24.05,0,111.1,13.14,24.10,76.6
"2009-08-10 00:14:00",1137917,4.705,107.1,3.481,0.256,19.78,109.3666,23.27,24.26,23.99,0,111.1,13.14,24.10,69.1
"2009-08-10 00:14:30",1137918,4.674,107.2,6.553,0.276,19.8,109.3666,23.27,24.27,23.98,0,111.1,13.14,24.10,69.2
"2009-08-10 00:15:00",1137919,4.018,115.2,3.24,0.271,19.75,109.3666,23.27,24.28,23.97,0,111.1,13.14,24.10,77.2
"2009-08-10 00:15:30",1137920,4.3,110.4,4.58,0.329,19.72,109.3666,23.27,24.27,23.99,0,111.1,13.14,24.10,72.4
"2009-08-10 00:16:00",1137921,4.791,105.2,6.316,0.379,19.87,109.3666,23.27,24.28,23.98,0,111.1,13.14,24.10,67.2
"2009-08-10 00:16:30",1137922,4.642,101.2,9.92,0.358,19.83,109.3666,23.27,24.28,23.92,0,111.1,13.14,24.10,63.2
"2009-08-10 00:17:00",1137923,4.623,110.9,2.002,0.202,19.75,109.3666,23.27,24.28,23.84,0,111.1,13.14,24.10,72.9
"2009-08-10 00:17:30",1137924,4.51,111.2,2.365,0.153,19.76,109.3666,23.27,24.28,23.87,0,111.1,13.14,24.10,73.2
"2009-08-10 00:18:00",1137925,4.382,105.8,4.486,0.143,19.76,109.3666,23.27,24.27,23.85,0,111.1,13.14,24.10,67.8
"2009-08-10 00:18:30",1137926,4.454,103.5,4.731,0.135,19.74,109.3666,23.27,24.29,23.91,0,111.1,13.14,24.10,65.5
"2009-08-10 00:19:00",1137927,4.406,126,3.752,0.233,19.71,109.3666,23.27,24.28,23.89,0,111.1,13.14,24.10,88.0
"2009-08-10 00:19:30",1137928,4.436,121.5,2.319,0.151,19.77,109.3666,23.27,24.28,23.86,0,111.1,13.14,24.10,83.5
"2009-08-10 00:20:00",1137929,4.662,124.5,2.628,0.28,19.76,109.3666,23.27,24.27,23.83,0,111.1,13.14,24.10,86.5
"2009-08-10 00:20:30",1137930,3.927,124.8,4.182,0.184,19.79,109.366,23.27,24.27,23.85,0,111.1,13.14,24.10,86.8
"2009-08-10 00:21:00",1137931,4.185,101.7,6.085,0.274,19.78,109.3663,23.27,24.28,23.85,0,111.1,13.14,24.10,63.7
"2009-08-10 00:21:30",1137932,4.025,100.6,6.88,0.707,19.75,109.364,23.26,24.29,23.86,0,111.1,13.14,24.09,62.6
"2009-08-10 00:22:00",1137933,4.836,94.3,3.542,0.5,19.81,109.3626,23.26,24.27,23.89,0,111.1,13.14,24.09,56.3
"2009-08-10 00:22:30",1137934,4.858,109.2,11.25,0.306,19.87,109.3598,23.25,24.27,23.92,0,111.1,13.14,24.08,71.2
"2009-08-10 00:23:00",1137935,4.448,122.4,3.021,0.254,19.8,109.3567,23.24,24.27,23.97,0,111.1,13.14,24.08,84.4
"2009-08-10 00:23:30",1137936,4.2,120.3,3.339,0.27,19.84,109.3528,23.23,24.27,23.97,0,111.1,13.14,24.07,82.3
"2009-08-10 00:24:00",1137937,3.806,125.3,7.575,0.213,19.84,109.3514,23.23,24.27,23.97,0,111.1,13.13,24.06,87.3
"2009-08-10 00:24:30",1137938,3.511,127.7,2.618,0.204,19.82,109.3506,23.23,24.27,23.98,0,111.1,13.13,24.06,89.7
"2009-08-10 00:25:00",1137939,3.026,127.8,2.784,0.248,19.81,109.3514,23.23,24.28,23.98,0,111.1,13.13,24.06,89.8
"2009-08-10 00:25:30",1137940,3.16,121.6,5.97,0.275,19.8,109.3576,23.24,24.26,23.99,0,111.1,13.13,24.08,83.6
"2009-08-10 00:26:00",1137941,2.862,115.2,8.38,0.2,19.83,109.3629,23.26,24.29,24,0,111.1,13.13,24.09,77.2
"2009-08-10 00:26:30",1137942,3.037,116.8,6.672,0.192,19.78,109.3657,23.27,24.25,24.01,0,111.1,13.13,24.10,78.8
"2009-08-10 00:27:00",1137943,3.704,112.1,10.34,0.38,19.82,109.3666,23.27,24.27,24.04,0,111.1,13.13,24.10,74.1
"2009-08-10 00:27:30",1137944,4.214,115.8,5.07,0.43,19.89,109.3666,23.27,24.28,24.02,0,111.1,13.13,24.10,77.8
"2009-08-10 00:28:00",1137945,3.59,98.1,11,0.412,19.84,109.3666,23.27,24.3,24.01,0,111.1,13.14,24.10,60.1
"2009-08-10 00:28:30",1137946,3.392,95.2,7.459,0.432,19.82,109.3666,23.27,24.28,23.99,0,111.1,13.14,24.10,57.2
"2009-08-10 00:29:00",1137947,4.473,109.6,13.17,0.61,19.78,109.3666,23.27,24.27,23.97,0,111.1,13.14,24.10,71.6
"2009-08-10 00:29:30",1137948,5.335,117.2,2.002,0.121,19.86,109.3666,23.27,24.28,24.05,0,111.1,13.14,24.10,79.2
"2009-08-10 00:30:00",1137949,5.685,118.4,2.175,0.199,19.88,109.3666,23.27,24.28,24.04,0,111.1,13.14,24.10,80.4
"2009-08-10 00:30:30",1137950,5.38,119.2,3.382,0.236,19.9,109.3666,23.27,24.28,24.03,0,111.1,13.14,24.10,81.2
"2009-08-10 00:31:00",1137951,4.735,125.3,4.289,0.246,19.91,109.3666,23.27,24.28,24,0,111.1,13.14,24.10,87.3
"2009-08-10 00:31:30",1137952,4.849,115,2.651,0.265,19.92,109.3666,23.27,24.28,23.98,0,111.1,13.14,24.10,77.0
"2009-08-10 00:32:00",1137953,3.924,108.3,3.747,0.184,19.89,109.3666,23.27,24.28,23.94,0,111.1,13.14,24.10,70.3
"2009-08-10 00:32:30",1137954,3.608,101,2.357,0.303,19.87,109.3666,23.27,24.29,23.92,0,111.1,13.14,24.10,63.0
"2009-08-10 00:33:00",1137955,4.184,114.6,6.333,0.208,19.91,109.3666,23.27,24.28,24,0,111.1,13.14,24.10,76.6
"2009-08-10 00:33:30",1137956,3.531,115.2,4.415,0.406,19.9,109.3666,23.27,24.3,24.05,0,111.1,13.14,24.10,77.2
"2009-08-10 00:34:00",1137957,2.948,116.3,2.891,0.143,19.84,109.3666,23.27,24.3,23.99,0,111.1,13.14,24.10,78.3
"2009-08-10 00:34:30",1137958,3.206,114.8,3.471,0.348,19.85,109.3669,23.27,24.29,23.93,0,111.1,13.14,24.10,76.8
"2009-08-10 00:35:00",1137959,2.833,101.5,6.189,0.479,19.87,109.3666,23.27,24.3,23.92,0,111.1,13.14,24.10,63.5
"2009-08-10 00:35:30",1137960,2.884,108.1,11.27,0.332,19.86,109.3666,23.27,24.3,23.96,0,111.1,13.14,24.10,70.1
"2009-08-10 00:36:00",1137961,3.149,125.8,6.06,0.292,19.96,109.3666,23.27,24.3,24.07,0,111.1,13.14,24.10,87.8
"2009-08-10 00:36:30",1137962,3.346,100.9,6.694,0.319,19.95,109.3669,23.27,24.3,24.05,0,111.1,13.14,24.10,62.9
"2009-08-10 00:37:00",1137963,4.025,105.1,6.803,0.304,19.99,109.3666,23.27,24.3,24.14,0,111.1,13.14,24.10,67.1
"2009-08-10 00:37:30",1137964,4.533,111.3,3.16,0.277,19.9,109.3666,23.27,24.29,24.12,0,111.1,13.14,24.10,73.3
"2009-08-10 00:38:00",1137965,4.835,111.5,2.171,0.151,19.9,109.3666,23.27,24.28,24.11,0,111.1,13.14,24.10,73.5
"2009-08-10 00:38:30",1137966,4.819,108.7,2.671,0.209,19.95,109.3697,23.28,24.29,24.16,0,111.1,13.14,24.11,70.7
"2009-08-10 00:39:00",1137967,4.465,117.7,4.061,0.36,19.95,109.3709,23.28,24.3,24.09,0,111.1,13.14,24.11,79.7
"2009-08-10 00:39:30",1137968,4.013,120.6,4.396,0.151,19.93,109.3723,23.28,24.3,24.04,0,111.1,13.14,24.12,82.6
"2009-08-10 00:40:00",1137969,3.374,118.4,9.09,0.353,19.96,109.3748,23.29,24.32,24.08,0,111.1,13.14,24.12,80.4
"2009-08-10 00:40:30",1137970,3.589,112.1,5.406,0.197,19.95,109.3748,23.29,24.32,24.17,0,111.1,13.14,24.12,74.1
"2009-08-10 00:41:00",1137971,4.419,116.1,6.728,0.567,19.95,109.3759,23.29,24.32,24.08,0,111.1,13.14,24.12,78.1
"2009-08-10 00:41:30",1137972,4.501,108.7,5.947,0.215,19.99,109.3765,23.29,24.33,24.06,0,111.1,13.13,24.13,70.7
"2009-08-10 00:42:00",1137973,4.705,104,2.596,0.181,20.04,109.3817,23.31,24.33,24.22,0,111.1,13.13,24.14,66.0
"2009-08-10 00:42:30",1137974,4.276,100.3,3.112,0.209,19.99,109.3799,23.3,24.33,24.15,0,111.1,13.13,24.13,62.3
"2009-08-10 00:43:00",1137975,3.861,101.9,1.925,0.138,19.92,109.3822,23.31,24.33,24.01,0,111.1,13.13,24.14,63.9
"2009-08-10 00:43:30",1137976,3.602,95.3,2.434,0.122,19.89,109.3829,23.31,24.35,23.9,0,111.1,13.13,24.14,57.3
"2009-08-10 00:44:00",1137977,3.53,106.8,4.617,0.157,19.92,109.3821,23.31,24.34,23.92,0,111.1,13.13,24.14,68.8
"2009-08-10 00:44:30",1137978,3.641,93.3,6.256,0.195,19.93,109.3871,23.32,24.34,23.93,0,111.1,13.13,24.15,55.3
"2009-08-10 00:45:00",1137979,3.709,73.98,2.047,0.122,19.96,109.3896,23.33,24.33,23.95,0,111.1,13.14,24.16,36.0
"2009-08-10 00:45:30",1137980,3.848,75.18,3.927,0.327,19.96,109.3978,23.35,24.36,23.98,0,111.1,13.14,24.18,37.2
"2009-08-10 00:46:00",1137981,3.451,83.9,2.909,0.26,19.99,109.4085,23.38,24.35,24,0,111.1,13.14,24.21,45.9
"2009-08-10 00:46:30",1137982,3.644,82.1,4.37,0.337,20.01,109.3987,23.35,24.34,24.03,0,111.1,13.14,24.18,44.1
"2009-08-10 00:47:00",1137983,4.037,91,5.966,0.314,20.08,109.3981,23.35,24.34,24.05,0,111.1,13.14,24.18,53.0
"2009-08-10 00:47:30",1137984,4.221,99.9,9.13,0.426,20.07,109.3987,23.35,24.34,24.09,0,111.1,13.14,24.18,61.9
"2009-08-10 00:48:00",1137985,3.443,102.2,5.906,0.142,20.03,109.3997,23.35,24.33,23.99,0,111.1,13.14,24.19,64.2
"2009-08-10 00:48:30",1137986,3.054,121.8,5.6,0.186,20.04,109.402,23.36,24.32,24.03,0,111.1,13.14,24.19,83.8
"2009-08-10 00:49:00",1137987,3.195,133.7,3.777,0.198,20.02,109.4117,23.38,24.32,24,0,111.1,13.14,24.22,95.7
"2009-08-10 00:49:30",1137988,3.381,132.5,9.47,0.293,20.04,109.4056,23.37,24.33,23.96,0,111.1,13.14,24.20,94.5
"2009-08-10 00:50:00",1137989,3.005,133.2,3.21,0.316,19.99,109.3997,23.35,24.33,23.95,0,111.1,13.14,24.19,95.2
"2009-08-10 00:50:30",1137990,2.963,132.5,6.394,0.139,20,109.3945,23.34,24.32,24,0,111.1,13.14,24.17,94.5
"2009-08-10 00:51:00",1137991,2.625,120.6,6.899,0.242,19.98,109.3969,23.35,24.33,24.02,0,111.1,13.14,24.18,82.6
"2009-08-10 00:51:30",1137992,2.634,122.9,4.664,0.124,19.93,109.3964,23.34,24.32,23.97,0,111.1,13.14,24.18,84.9
"2009-08-10 00:52:00",1137993,2.645,118.2,2.778,0.114,19.94,109.3934,23.34,24.31,23.92,0,111.1,13.14,24.17,80.2
"2009-08-10 00:52:30",1137994,2.68,104.8,4.501,0.327,19.93,109.3933,23.34,24.3,23.87,0,111.1,13.14,24.17,66.8
"2009-08-10 00:53:00",1137995,3.096,108.8,2.841,0.241,19.9,109.393,23.34,24.31,23.89,0,111.1,13.14,24.17,70.8
"2009-08-10 00:53:30",1137996,3.297,106.5,5.082,0.171,19.96,109.3918,23.33,24.31,23.89,0,111.1,13.14,24.17,68.5
"2009-08-10 00:54:00",1137997,3.526,111.5,3.77,0.125,19.94,109.3924,23.33,24.3,23.83,0,111.1,13.14,24.17,73.5
"2009-08-10 00:54:30",1137998,3.883,113.8,2.596,0.15,19.94,109.3936,23.34,24.27,23.79,0,111.1,13.14,24.17,75.8
"2009-08-10 00:55:00",1137999,3.976,116.5,2.803,0.136,19.96,109.3933,23.34,24.3,23.76,0,111.1,13.14,24.17,78.5
"2009-08-10 00:55:30",1138000,3.893,112.6,2.26,0.123,20.01,109.3942,23.34,24.29,23.72,0,111.1,13.14,24.17,74.6
"2009-08-10 00:56:00",1138001,4.214,108.9,3.512,0.203,20.04,109.3967,23.34,24.28,23.7,0,111.1,13.14,24.18,70.9
"2009-08-10 00:56:30",1138002,3.923,109.2,5.022,0.184,20.06,109.3965,23.34,24.3,23.78,0,111.1,13.14,24.18,71.2
"2009-08-10 00:57:00",1138003,3.728,95.4,14.39,0.6,20.04,109.3939,23.34,24.31,24.1,0,111.1,13.14,24.17,57.4
"2009-08-10 00:57:30",1138004,4.671,71.31,4.318,0.603,19.29,109.3661,23.27,24.29,32.46,0,111.1,13.14,24.10,33.3
"2009-08-10 00:58:00",1138005,5.45,70.9,4.276,0.348,19.38,109.3605,23.25,24.27,36.13,0,111.1,13.14,24.08,32.9
"2009-08-10 00:58:30",1138006,5.96,73.6,4.904,0.617,19.56,109.3605,23.25,24.25,36.77,0,111.1,13.14,24.08,35.6
"2009-08-10 00:59:00",1138007,6.817,74.63,3.947,0.452,19.67,109.3605,23.25,24.24,37.15,0,111.1,13.14,24.08,36.6
"2009-08-10 00:59:30",1138008,5.65,74.51,4.875,0.491,19.77,109.3507,23.23,24.23,37.47,0,111.1,13.14,24.06,36.5
"2009-08-10 01:00:00",1138009,6.172,74.73,4.086,0.412,19.62,109.3294,23.17,24.2,37.73,0,111.1,13.14,24.00,36.7
"2009-08-10 01:00:30",1138010,6.878,77.68,3.581,0.321,19.74,109.3271,23.17,24.19,37.44,0,111.1,13.14,24.00,39.7
"2009-08-10 01:01:00",1138011,6.735,72.01,3.187,0.315,19.72,109.3152,23.14,24.15,37.87,0,111.1,13.14,23.97,34.0
"2009-08-10 01:01:30",1138012,7.411,76.16,2.408,0.319,19.74,109.2943,23.08,24.13,37.41,0,111.1,13.14,23.91,38.2
"2009-08-10 01:02:00",1138013,7.206,75.22,1.857,0.259,19.75,109.2835,23.05,24.12,37.52,0,111.1,13.14,23.89,37.2
"2009-08-10 01:02:30",1138014,7.334,76.76,2.771,0.156,19.77,109.2664,23.01,24.08,37.37,0,111.1,13.14,23.84,38.8
"2009-08-10 01:03:00",1138015,7.952,78.83,2.643,0.361,19.78,109.2579,22.99,24.04,37.12,0,111.1,13.14,23.82,40.8
"2009-08-10 01:03:30",1138016,7.813,77.17,3.099,0.171,19.72,109.2349,22.93,24,37.7,0,111.1,13.14,23.76,39.2
"2009-08-10 01:04:00",1138017,7.349,74.41,3.829,0.503,19.7,109.2161,22.88,23.98,38.31,0,111.1,13.14,23.71,36.4
"2009-08-10 01:04:30",1138018,7.804,74.22,2.814,0.603,19.68,109.1981,22.83,23.93,38.85,0,111.1,13.15,23.67,36.2
"2009-08-10 01:05:00",1138019,8.66,75.55,3.662,0.29,19.74,109.1695,22.76,23.89,38.94,0,111.1,13.15,23.59,37.6
"2009-08-10 01:05:30",1138020,9.28,73.39,2.498,0.306,19.67,109.1515,22.72,23.84,38.93,0,111.1,13.15,23.55,35.4
"2009-08-10 01:06:00",1138021,8.31,66.33,1.723,0.566,19.71,109.1265,22.65,23.78,39.44,0,111.1,13.15,23.48,28.3
"2009-08-10 01:06:30",1138022,8.12,68.3,2.253,0.442,19.74,109.1001,22.58,23.75,39.79,0,111.1,13.15,23.41,30.3
"2009-08-10 01:07:00",1138023,8.34,71.36,4.039,0.172,19.73,109.0695,22.5,23.7,39.88,0,111.1,13.15,23.34,33.4
"2009-08-10 01:07:30",1138024,8.27,73.13,3.697,0.315,19.8,109.0456,22.44,23.63,39.59,0,111,13.15,23.27,35.1
"2009-08-10 01:08:00",1138025,8.55,69.95,4.739,0.545,19.71,109.0212,22.38,23.58,39.8,0,111.1,13.15,23.21,31.9
"2009-08-10 01:08:30",1138026,8.45,75.3,2.777,0.307,19.73,108.9962,22.32,23.53,40.13,0,111.1,13.15,23.15,37.3
"2009-08-10 01:09:00",1138027,8.48,74.61,3.413,0.519,19.74,108.9681,22.24,23.48,39.97,0,111,13.15,23.07,36.6
"2009-08-10 01:09:30",1138028,7.882,71.97,2.606,0.271,19.66,108.9473,22.19,23.43,40.51,0,111,13.15,23.02,34.0
"2009-08-10 01:10:00",1138029,8.32,69.89,2.945,0.538,19.59,108.9285,22.14,23.37,40.69,0,111,13.15,22.97,31.9
"2009-08-10 01:10:30",1138030,8.45,74.61,1.338,0.173,19.6,108.8998,22.07,23.3,40.95,0,111,13.15,22.90,36.6
"2009-08-10 01:11:00",1138031,8.43,74.76,1.835,0.231,19.58,108.8785,22.01,23.26,41.2,0,111,13.15,22.84,36.8
"2009-08-10 01:11:30",1138032,8.65,74.92,2.887,0.319,19.53,108.8608,21.97,23.21,41.28,0,111,13.15,22.80,36.9
"2009-08-10 01:12:00",1138033,8.93,75.2,3.281,0.268,19.6,108.8345,21.9,23.16,41.39,0,111,13.15,22.73,37.2
"2009-08-10 01:12:30",1138034,8.32,72.82,3.525,0.341,19.61,108.8226,21.87,23.12,41.54,0,111,13.15,22.70,34.8
"2009-08-10 01:13:00",1138035,7.896,77.7,3.569,0.239,19.58,108.8099,21.84,23.07,41.72,0,111,13.15,22.67,39.7
"2009-08-10 01:13:30",1138036,7.794,80.6,1.801,0.217,19.62,108.7947,21.8,23.01,41.93,0,111,13.15,22.63,42.6
"2009-08-10 01:14:00",1138037,8.01,79.54,2.187,0.332,19.58,108.7844,21.77,22.95,42.05,0,111,13.15,22.60,41.5
"2009-08-10 01:14:30",1138038,8.11,75.27,4.582,0.328,19.56,108.7596,21.71,22.92,42.19,0,111,13.15,22.54,37.3
"2009-08-10 01:15:00",1138039,7.938,74.7,3.107,0.46,19.61,108.7535,21.69,22.85,42.34,0,111,13.15,22.52,36.7
"2009-08-10 01:15:30",1138040,7.969,74.77,3.341,0.285,19.61,108.7254,21.62,22.81,42.37,0,111,13.15,22.45,36.8
"2009-08-10 01:16:00",1138041,8.01,73.26,1.646,0.279,19.61,108.7191,21.6,22.78,42.61,0,111,13.15,22.43,35.3
"2009-08-10 01:16:30",1138042,8.03,77.38,2.205,0.26,19.61,108.6974,21.55,22.73,42.67,0,111,13.15,22.38,39.4
"2009-08-10 01:17:00",1138043,7.811,73.97,4.511,0.508,19.57,108.6949,21.54,22.69,42.75,0,111,13.15,22.37,36.0
"2009-08-10 01:17:30",1138044,8.73,76.02,2.058,0.392,19.63,108.671,21.48,22.66,42.55,0,111,13.15,22.31,38.0
"2009-08-10 01:18:00",1138045,8.86,69.16,3.104,0.383,19.63,108.6649,21.47,22.61,42.69,0,111,13.15,22.29,31.2
"2009-08-10 01:18:30",1138046,8.28,69.45,2.534,0.304,19.6,108.6421,21.41,22.57,43.15,0,111,13.15,22.23,31.4
"2009-08-10 01:19:00",1138047,8.26,74.93,1.275,0.176,19.62,108.6311,21.38,22.53,42.92,0,111,13.15,22.21,36.9
"2009-08-10 01:19:30",1138048,8.52,71.77,2.876,0.307,19.62,108.6219,21.36,22.5,43.14,0,111,13.16,22.18,33.8
"2009-08-10 01:20:00",1138049,8.27,73.84,4.279,0.132,19.62,108.6002,21.3,22.46,43.5,0,111,13.16,22.13,35.8
"2009-08-10 01:20:30",1138050,8.69,74.05,4.093,0.365,19.61,108.5974,21.29,22.43,43.31,0,111,13.16,22.12,36.1
"2009-08-10 01:21:00",1138051,8.65,74.19,4.437,0.25,19.67,108.5828,21.26,22.4,43.64,0,111,13.16,22.08,36.2
"2009-08-10 01:21:30",1138052,7.782,72.47,3.833,0.482,19.61,108.566,21.21,22.38,43.52,0,111,13.16,22.04,34.5
"2009-08-10 01:22:00",1138053,7.059,76.09,4.487,0.414,19.64,108.5637,21.21,22.35,43.95,0,111,13.16,22.03,38.1
"2009-08-10 01:22:30",1138054,7.512,74.65,4.468,0.583,19.57,108.5576,21.19,22.32,43.79,0,111,13.16,22.02,36.7
"2009-08-10 01:23:00",1138055,8.29,69.79,2.001,0.208,19.58,108.5365,21.14,22.3,43.84,0,111,13.16,21.96,31.8
"2009-08-10 01:23:30",1138056,8.7,75.59,2.964,0.487,19.62,108.5306,21.12,22.27,43.84,0,111,13.16,21.95,37.6
"2009-08-10 01:24:00",1138057,8.91,73.52,2.445,0.275,19.61,108.5308,21.12,22.25,44.03,0,110.9,13.16,21.95,35.5
"2009-08-10 01:24:30",1138058,7.68,70.61,3.633,0.49,19.64,108.5109,21.07,22.22,44.18,0,110.9,13.16,21.90,32.6
"2009-08-10 01:25:00",1138059,8.02,77.03,3.204,0.489,19.65,108.4996,21.04,22.19,44.02,0,110.9,13.16,21.87,39.0
"2009-08-10 01:25:30",1138060,7.464,70.12,4.794,0.207,19.59,108.5009,21.04,22.14,43.91,0,110.9,13.16,21.87,32.1
"2009-08-10 01:26:00",1138061,7.863,74.79,3.191,0.268,19.61,108.5013,21.05,22.14,44.13,0,110.9,13.16,21.87,36.8
"2009-08-10 01:26:30",1138062,8.72,74.92,1.312,0.289,19.61,108.4994,21.04,22.13,43.78,0,110.9,13.17,21.87,36.9
"2009-08-10 01:27:00",1138063,7.796,71.45,2.323,0.459,19.59,108.4885,21.01,22.1,44.06,0,110.9,13.17,21.84,33.4
"2009-08-10 01:27:30",1138064,8.18,71.73,2.825,0.298,19.57,108.4879,21.01,22.09,44.09,0,110.9,13.17,21.84,33.7
"2009-08-10 01:28:00",1138065,8.56,67.72,1.526,0.35,19.59,108.4897,21.02,22.07,44.24,0,110.9,13.17,21.84,29.7
"2009-08-10 01:28:30",1138066,8.24,69.81,1.69,0.295,19.57,108.4863,21.01,22.05,44.48,0,110.9,13.17,21.83,31.8
"2009-08-10 01:29:00",1138067,7.496,72.51,1.718,0.304,19.55,108.4701,20.97,22.03,44.48,0,110.9,13.17,21.79,34.5
"2009-08-10 01:29:30",1138068,7.614,67.98,4.801,0.319,19.56,108.4589,20.94,22.03,44.77,0,110.9,13.17,21.76,30.0
"2009-08-10 01:30:00",1138069,8.13,75.32,2.029,0.614,19.59,108.4584,20.94,22.01,44.67,0,110.9,13.17,21.76,37.3
"2009-08-10 01:30:30",1138070,7.578,71.75,4.233,0.573,19.57,108.4615,20.94,21.99,44.47,0,110.9,13.17,21.77,33.8
"2009-08-10 01:31:00",1138071,7.598,69.35,2.977,0.223,19.56,108.4634,20.95,21.97,44.9,0,110.9,13.17,21.77,31.3
"2009-08-10 01:31:30",1138072,7.748,74.02,4.176,0.211,19.57,108.4469,20.91,21.96,44.77,0,110.9,13.17,21.73,36.0
"2009-08-10 01:32:00",1138073,7.857,72.48,2.52,0.684,19.55,108.4359,20.88,21.95,44.74,0,110.9,13.17,21.70,34.5
"2009-08-10 01:32:30",1138074,8.07,68.42,2.89,0.447,19.52,108.4317,20.87,21.93,45.37,0,110.9,13.17,21.69,30.4
"2009-08-10 01:33:00",1138075,8.31,69.9,4.306,0.613,19.53,108.4317,20.87,21.9,45.26,0,110.9,13.17,21.69,31.9
"2009-08-10 01:33:30",1138076,7.676,68.53,1.044,0.355,19.55,108.4278,20.86,21.9,45.24,0,110.9,13.17,21.68,30.5
"2009-08-10 01:34:00",1138077,7.963,73.94,3.095,0.496,19.62,108.4087,20.81,21.88,44.31,0,110.9,13.17,21.63,35.9
"2009-08-10 01:34:30",1138078,8.06,71.18,3.117,0.259,19.54,108.3991,20.78,21.87,44.23,0,110.9,13.17,21.61,33.2
"2009-08-10 01:35:00",1138079,7.217,62.04,2.023,0.57,19.46,108.398,20.78,21.85,45.28,0,110.9,13.17,21.61,24.0
"2009-08-10 01:35:30",1138080,7.529,73.65,4.171,0.28,19.57,108.3977,20.78,21.84,45.45,0,110.9,13.17,21.60,35.7
"2009-08-10 01:36:00",1138081,7.106,70.63,2.806,0.174,19.53,108.3898,20.76,21.82,44.82,0,110.9,13.17,21.58,32.6
"2009-08-10 01:36:30",1138082,8.18,70.37,2.184,0.275,19.51,108.3718,20.71,21.8,44.88,0,110.9,13.17,21.54,32.4
"2009-08-10 01:37:00",1138083,8.2,70.3,3.731,0.611,19.51,108.3643,20.69,21.79,45.05,0,110.9,13.18,21.52,32.3
"2009-08-10 01:37:30",1138084,8.7,73.61,1.154,0.183,19.54,108.3643,20.69,21.78,44.44,0,110.9,13.18,21.52,35.6
"2009-08-10 01:38:00",1138085,7.422,71.65,4.817,0.469,19.52,108.3643,20.69,21.76,45.12,0,110.9,13.18,21.52,33.7
"2009-08-10 01:38:30",1138086,7.547,71.04,1.358,0.337,19.54,108.353,20.67,21.76,45.16,0,110.9,13.18,21.49,33.0
"2009-08-10 01:39:00",1138087,8.12,74.35,2.12,0.153,19.63,108.3374,20.63,21.74,44.66,0,110.9,13.18,21.45,36.3
"2009-08-10 01:39:30",1138088,7.91,74.92,2.206,0.165,19.66,108.3326,20.61,21.72,44.68,0,110.9,13.18,21.44,36.9
"2009-08-10 01:40:00",1138089,8.28,74.71,2.083,0.256,19.62,108.3387,20.63,21.71,44.78,0,110.9,13.18,21.45,36.7
"2009-08-10 01:40:30",1138090,8.49,74.86,2.45,0.279,19.63,108.3433,20.64,21.69,44.88,0,110.9,13.18,21.46,36.9
"2009-08-10 01:41:00",1138091,8.66,75.33,1.021,0.111,19.7,108.3477,20.65,21.69,45.03,0,110.9,13.18,21.48,37.3
"2009-08-10 01:41:30",1138092,8.44,76.66,0.499,0.135,19.67,108.3433,20.64,21.67,44.88,0,110.9,13.18,21.46,38.7
"2009-08-10 01:42:00",1138093,8.57,76.66,1.621,0.298,19.63,108.3359,20.62,21.66,45.02,0,110.9,13.18,21.45,38.7
"2009-08-10 01:42:30",1138094,8.74,77.76,0.483,0.097,19.65,108.3244,20.59,21.66,45.21,0,110.9,13.18,21.42,39.8
"2009-08-10 01:43:00",1138095,8.63,75.68,1.685,0.204,19.62,108.3245,20.59,21.64,45.36,0,110.9,13.18,21.42,37.7
"2009-08-10 01:43:30",1138096,8.26,75.83,0.502,0.098,19.67,108.3257,20.6,21.62,45.36,0,110.9,13.18,21.42,37.8
"2009-08-10 01:44:00",1138097,8.2,77.31,0.761,0.176,19.65,108.3281,20.6,21.62,45.21,0,110.9,13.18,21.43,39.3
"2009-08-10 01:44:30",1138098,8.18,77.57,0.467,0.15,19.64,108.3291,20.6,21.6,45.19,0,110.9,13.18,21.43,39.6
"2009-08-10 01:45:00",1138099,8.46,77.48,2.111,0.204,19.63,108.3241,20.59,21.61,45.34,0,110.9,13.19,21.42,39.5
"2009-08-10 01:45:30",1138100,7.962,77.68,2.242,0.157,19.7,108.3153,20.57,21.58,45.24,0,110.9,13.19,21.39,39.7
"2009-08-10 01:46:00",1138101,8.21,80,0.644,0.085,19.7,108.3041,20.54,21.58,44.56,0,110.9,13.19,21.36,42.0
"2009-08-10 01:46:30",1138102,8.05,78.85,0.595,0.134,19.71,108.2999,20.53,21.57,44.32,0,110.9,13.19,21.35,40.8
"2009-08-10 01:47:00",1138103,7.928,80,1.618,0.126,19.67,108.2996,20.53,21.56,44.5,0,110.9,13.19,21.35,42.0
"2009-08-10 01:47:30",1138104,8.04,78.46,0.658,0.064,19.7,108.2996,20.53,21.55,44.4,0,110.9,13.19,21.35,40.5
"2009-08-10 01:48:00",1138105,8.04,80.5,0.907,0.075,19.69,108.2996,20.53,21.55,44.5,0,110.9,13.19,21.35,42.5